Location: *
(46.1333°S, 161.2167°W)
Time: 04:33:15
(UTC+00:00)

Meteor 1-16 Rocket - Pass Details

Date: 15 July 2020
Orbit: 790 x 907 km, 81.2° (Epoch: 10 August)

Event Time Altitude Azimuth Distance (km) Brightness Sun altitude
Exits shadow 16:29:06 - 194° (SSW) 3,520 7.2 -18.9°
Reaches altitude 10° 16:31:34 10° 196° (SSW) 2,582 6.4 -18.5°
Maximum altitude 16:37:23 64° 276° (W) 965 4.2 -17.5°
Drops below altitude 10° 16:42:57 10° 356° (N) 2,474 6.8 -16.6°
Sets 16:45:19 0° 359° (N) 3,383 7.5 -16.2°
